Regional Weather Roundup
Issued by NWS Kansas City/Pleasant Hill, MO

Home | Current Version | Previous Version | Graphics & Text | Print | Product List | Glossary Off
Versions: 1 2 3 4 5 6 7 8 9 10 11 12 13 14 15 16 17 18 19 20 21 22 23 24 25 26 27

000
ASUS43 KEAX 290310
RWREAX

WEATHER ROUNDUP FOR EASTERN KANSAS AND NORTHWEST MISSOURI
NATIONAL WEATHER SERVICE KANSAS CITY/PLEASANT HILL MO
1000 PM CDT FRI APR 28 2017

KSZ040-057-103>105-MOZ028-029-037-043-290400-
...KANSAS CITY METROPOLITAN AREA...

CITY           SKY/WX    TMP DP  RH WIND       PRES   REMARKS
K.C. INTL      DRZL/FOG  45  44  97 N10       29.94R VSB 1/2
K.C. DOWNTOWN  CLOUDY    49  47  93 NE10      29.93R
LEES SUMMIT    CLOUDY    49  49 100 N14       29.92R FOG
OLATHE - IXD   CLOUDY    49  48  97 N14       29.92R FOG
OLATHE - OJC   CLOUDY    50  50 100 N13       29.90R
LAWRENCE       CLOUDY    47  47 100 N12       29.93R

$$

MOZ001>008-011>017-020>025-030>033-038>040-044>046-053-054-290400-
...NORTHERN AND CENTRAL MISSOURI...

CITY           SKY/WX    TMP DP  RH WIND       PRES   REMARKS
ST. JOSEPH     CLOUDY    44  44 100 N14       29.97R
MOSBY          CLOUDY    45  45 100 N10       29.93R
WHITEMAN AFB   CLOUDY    55  55 100 N15       29.88R
CLINTON        NOT AVBL
SEDALIA        CLOUDY    60  60 100 N3        29.88R
WARSAW         NOT AVBL
CHILLICOTHE      N/A     46  43  89 N6        29.96R
KIRKSVILLE     CLOUDY    45  31  58 N10       29.95R HAZE

$$

MOZ041-047>049-056>058-063>065-088>090-097-290400-
...EASTERN AND SOUTHERN MISSOURI...

CITY           SKY/WX    TMP DP  RH WIND       PRES   REMARKS
ST. LOUIS INTL CLOUDY    60  56  86 SE5       29.87R
SPIRIT OF STL  MOCLDY    58  58 100 E3        29.85R FOG
COLUMBIA       CLOUDY    59  58  96 N5        29.89R
JEFFERSON CITY CLOUDY    62  58  86 SE3       29.87R
ROLLA          CLOUDY    60  60 100 NE5       29.83S FOG
OSAGE BEACH    CLOUDY    61  60  97 N5        29.86R FOG
SPRINGFIELD    CLOUDY    63  61  93 N8        29.79F
BRANSON        CLOUDY    63  63 100 E5        29.80F FOG
JOPLIN         CLOUDY    64  62  93 N7        29.81R
WEST PLAINS    CLOUDY    64  63  96 NE5       29.82R FOG

$$

IAZ060-094-KSZ022-034>040-054-083-096-NEZ052-066-093-290400-
...KANSAS...SOUTHEAST NEBRASKA AND IOWA...

CITY           SKY/WX    TMP DP  RH WIND       PRES   REMARKS
TOPEKA         CLOUDY    47  45  93 N13       29.94R
MANHATTAN      CLOUDY    45  42  89 NE12      29.95R
EMPORIA        CLOUDY    49  49 100 N13       29.90R
CHANUTE        CLOUDY    62  56  80 E6        29.82R
WICHITA        CLOUDY    54  48  80 N23G29    29.84R
OMAHA          CLOUDY    43  37  79 N8        30.03R
LINCOLN        CLOUDY    41  39  93 NE14      30.03R WCI  33
FALLS CITY     CLOUDY    44  41  89 NE8       29.97R
LAMONI         CLOUDY    43  42  97 NE12G22   29.98R
DES MOINES     CLOUDY    45  38  76 NE13      30.01R

$$





USA.gov is the U.S. government's official web portal to all federal, state and local government web resources and services.